Location: Decatur(IL)
(39.8400°N, 88.9550°W)
Time: 22:11:53
(UTC-05:00)

Cosmos 1953 - Visible Passes

Search period start: 19 April 2014 00:00
Search period end: 29 April 2014 00:00
Orbit: 553 x 571 km, 82.5° (Epoch: 19 April)

Date Brightness Start Highest point End Pass type
(mag) Time Alt. Az. Time Alt. Az. Time Alt. Az.
19 Apr 4.8 02:41:42 10° NNE 02:43:28 21° NNE 02:43:28 21° NNE visible
19 Apr 4.7 04:18:57 10° NW 04:19:25 12° NW 04:19:25 12° NW visible
20 Apr 4.8 02:41:04 10° N 02:42:44 21° NNE 02:42:44 21° NNE visible
21 Apr 4.8 02:40:27 10° N 02:42:01 21° NNE 02:42:01 21° NNE visible
22 Apr 4.8 02:39:51 10° N 02:41:18 21° N 02:41:18 21° N visible
23 Apr 4.8 02:39:15 10° N 02:40:36 20° N 02:40:36 20° N visible
24 Apr 4.8 02:38:41 10° N 02:39:54 19° N 02:39:54 19° N visible
25 Apr 4.8 02:38:07 10° N 02:39:13 18° N 02:39:13 18° N visible
26 Apr 4.9 02:37:33 10° NNW 02:38:31 17° NNW 02:38:31 17° NNW visible
27 Apr 4.9 02:37:01 10° NNW 02:37:49 15° NNW 02:37:49 15° NNW visible
28 Apr 5.0 02:36:29 10° NNW 02:37:07 14° NNW 02:37:07 14° NNW visible
